User: anonymous   Login
Location: Unspecified
(0.0000°N, 0.0000°E)
Time: 07:19:18
(UTC+00:00)
Language:

Astrid 2 - Orbit

View from above orbital plane
View from above orbital plane
View from above satellite
View from above satellite

Ground track
Ground track

The orbit data is extracted from the following two-line orbital elements,

1 25568U 98072B   19051.95143764 +.00000044 +00000-0 +31793-4 0  9992
2 25568 082.9462 254.7387 0024204 317.4097 171.9494 13.72553399011394
Epoch (UTC): 20 February 2019 22:50:04
Eccentricity: 0.0024204
inclination: 82.9462°
perigee height: 972 km
apogee height: 1008 km
right ascension of ascending node: 254.7387°
argument of perigee: 317.4097°
revolutions per day: 13.72553399
mean anomaly at epoch: 171.9494°
orbit number at epoch: 1139

The dashed part of the orbit path shows where the satellite is in the earth's shadow,  

DLR